Location: Navarre
(52.9016°N, 113.4144°W)
Time: 17:32:32
(UTC+00:00)

BlueWalker 3 - Visible Passes

Search period start: 08 June 2023 00:00
Search period end: 18 June 2023 00:00
Orbit: 494 x 513 km, 53.2° (Epoch: 08 June)

Date Brightness Start Highest point End Pass type
(mag) Time Alt. Az. Time Alt. Az. Time Alt. Az.
08 Jun 1.9 05:33:59 10° WNW 05:37:49 67° SSW 05:41:41 10° ESE visible
08 Jun 3.3 07:12:51 10° W 07:15:54 22° SW 07:16:22 22° SSW visible
09 Jun 2.0 05:13:32 10° WNW 05:17:23 66° SSW 05:21:13 10° ESE visible
09 Jun 3.3 06:52:26 10° W 06:55:27 22° SW 06:56:11 20° SSW visible
10 Jun 2.0 04:53:05 10° WNW 04:56:55 65° SSW 05:00:45 10° ESE visible
10 Jun 3.4 06:32:00 10° W 06:34:58 21° SW 06:36:05 19° SSW visible
11 Jun 3.5 06:11:33 10° W 06:14:30 21° SW 06:16:00 17° S visible
12 Jun 3.6 05:51:06 10° W 05:54:00 20° SW 05:55:59 14° S visible
13 Jun 3.6 05:30:38 10° W 05:33:30 20° SW 05:35:59 12° S visible
14 Jun 3.7 05:10:09 10° W 05:12:59 20° SW 05:15:49 10° S visible
15 Jun 3.8 04:49:40 10° W 04:52:28 19° SW 04:55:15 10° S visible
